Terminal Aerodrome Forecast
Issued by NWS Austin/San Antonio, TX

Home | Current Version | Previous Version | Text Only | Print | Product List | Glossary On
Versions: 1 2 3 4 5 6 7 8 9 10 11 12 13 14 15 16 17 18 19 20 21 22 23 24 25 26
000
FTUS44 KEWX 280500
TAFSAT
TAF
KSAT 280520Z 2806/0112 04008KT 6SM -DZ BR OVC009
     FM010000 07008KT 1SM BR OVC004=

USA.gov is the U.S. government's official web portal to all federal, state and local government web resources and services.